Tracking 19176 objects as of 27-May-2018
HD Live streaming from Space Station
objects crossing your sky now

FENGYUN 1C DEB

Track FENGYUN 1C DEB now!
10-day predictions


NORAD ID: 29958
Int'l Code: 1999-025KG
Perigee: 818.9 km
Apogee: 901.6 km
Inclination: 98.9 °
Period: 102.0 minutes
Semi major axis: 7231 km
RCS: 0.1257 m2 (medium)
Launch date: May 10, 1999
Source: People's Republic of China (PRC)
Launch site: Taiyaun Space Center, China (TSC)

Note: This is SATELLITE DEBRIS
aabbcc
Your satellite tracking list
Your tracking list is empty




NASA's NSSDC Master Catalog

Two Line Element Set (TLE):
1 29958U 99025KG  18147.05231924 +.00000024 +00000-0 +37243-4 0  9994
2 29958 098.9295 175.9384 0057176 236.9294 122.6379 14.11844682585327
Source of the keplerian elements: AFSPC